Theta_e
303 303 303 304 304 304 305 305 306 306 306 306 308 301 300 299 301 302 299 299 302 303 303 307 306 306 307 307 312 316 312 312 311 311 314 310 308 309 308 310 310 308 307 305 304
302 302 302 303 303 305 306 306 305 305 306 305 307 305 301 300 300 297 295 298 300 300 302 307 306 306 308 308 308 311 311 311 309 308 308 307 307 307 307 308 305 303 303 300 301
300 300 302 304 306 308 309 309 306 306 305 306 305 308 304 306 303 296 293 295 295 299 300 305 305 306 309 309 307 309 312 309 306 306 304 305 306 305 305 306 299 299 299 300 301
299 300 302 305 307 308 308 307 308 308 305 305 304 307 307 305 304 292 292 294 296 299 302 306 306 306 308 309 308 309 307 305 305 302 300 301 303 304 299 298 297 298 299 299 300
299 299 302 305 306 307 307 305 303 304 305 305 306 309 298 298 294 291 292 294 296 299 303 305 305 306 307 307 306 307 305 305 303 300 297 299 301 303 299 298 298 298 298 299 298
299 299 303 304 304 307 307 306 305 304 304 306 304 296 298 299 291 291 293 294 296 300 302 304 305 306 306 306 306 304 304 303 301 297 296 296 300 302 298 299 298 298 298 298 297
299 299 301 302 302 303 306 302 305 307 306 299 293 295 295 291 291 292 293 294 297 299 300 297 301 304 304 304 300 302 303 302 297 295 295 294 300 298 298 299 298 298 297 297 296
298 298 300 300 300 302 302 295 299 299 295 294 294 295 293 290 291 292 293 295 295 296 295 294 296 297 298 297 299 301 302 304 295 294 294 295 299 297 297 298 298 297 297 297 296
297 297 299 299 297 295 294 294 292 294 294 293 296 297 292 290 291 290 292 293 295 294 293 294 295 296 297 302 300 299 301 297 296 293 294 296 297 297 297 297 297 297 296 296 296
297 295 297 298 297 296 295 294 294 293 293 293 293 297 291 290 290 290 291 292 295 295 296 296 297 298 295 299 301 298 297 295 294 293 293 296 297 297 296 296 296 296 296 295 294
297 295 293 297 299 296 299 299 299 298 291 291 291 291 290 290 290 291 290 292 295 295 296 294 296 295 291 291 291 292 293 294 293 292 293 294 295 297 296 296 295 295 295 295 294
297 295 291 294 298 297 298 298 294 294 292 290 290 290 289 289 292 291 292 294 295 295 295 295 292 290 290 291 291 293 294 294 293 292 293 295 295 296 296 295 295 294 294 294 293
297 295 290 295 297 297 295 292 290 292 296 291 290 290 289 290 289 290 291 291 294 293 294 295 289 289 290 291 293 292 291 291 292 292 294 295 297 296 297 296 295 295 294 293 293
295 293 291 292 298 295 294 289 290 291 308 293 292 290 290 290 289 288 288 291 291 292 291 290 288 289 291 290 291 294 290 290 291 294 299 295 300 297 298 297 296 294 293 292 292
295 288 291 290 295 298 292 292 295 297 308 292 291 289 290 291 290 290 288 292 291 290 292 290 289 289 291 289 289 292 290 291 293 295 295 297 297 299 297 296 296 294 293 292 291
294 288 289 292 294 291 292 295 296 310 308 291 290 290 291 290 289 290 290 289 290 291 291 289 288 289 288 288 288 289 291 292 294 295 302 296 294 300 298 298 295 293 292 291 291
293 289 288 288 295 292 294 297 309 306 290 294 292 290 291 289 290 290 290 291 295 298 295 289 289 288 288 290 289 292 294 304 304 304 305 294 293 299 298 295 294 292 292 291 291
290 289 287 288 291 293 295 303 303 297 294 288 289 290 293 289 289 289 290 292 289 290 294 297 299 288 287 288 290 289 292 300 302 300 298 292 293 299 296 295 293 292 291 291 291
290 289 289 289 293 292 298 304 312 296 291 291 289 292 292 288 290 290 291 293 290 289 299 296 292 287 287 288 289 290 294 289 294 289 291 296 297 296 295 294 293 292 291 290 290
292 290 288 291 292 294 301 305 293 289 289 290 297 291 298 291 291 291 291 290 289 288 286 289 297 287 287 287 287 289 289 293 293 299 300 298 296 297 295 295 294 292 291 290 290
290 295 287 291 290 298 307 299 288 288 289 290 292 291 293 292 293 294 294 288 288 287 287 288 291 290 287 288 290 287 289 289 290 291 297 297 298 300 297 296 294 292 290 290 290
291 300 286 286 298 292 297 289 288 288 288 289 290 290 292 290 291 291 294 290 288 288 288 288 291 294 292 287 285 288 290 291 293 294 290 291 293 294 292 292 292 291 290 289 289
298 294 286 288 303 297 287 288 289 288 288 288 289 289 288 289 292 289 289 287 287 288 289 288 292 298 292 287 285 286 287 288 288 287 290 293 296 291 289 291 290 290 290 290 289
296 301 293 291 288 294 291 290 289 288 288 288 289 288 288 288 287 289 288 287 287 288 287 288 289 292 299 293 289 287 287 287 288 290 291 291 293 294 293 292 292 291 290 290 289
292 293 284 300 292 291 290 290 289 288 287 288 287 289 289 288 288 288 288 287 287 287 288 288 289 287 287 288 288 288 288 288 288 288 291 293 293 294 294 292 291 290 289 288 288
296 293 284 284 285 289 289 289 290 288 288 288 288 289 288 289 291 290 289 288 289 287 288 287 289 282 284 287 287 287 288 288 288 289 288 289 289 290 291 291 289 289 289 288 288
285 284 292 287 289 292 296 291 289 289 288 288 288 289 288 288 288 287 289 288 289 288 289 286 288 286 291 284 285 288 286 287 288 287 288 289 291 291 291 290 289 289 288 287 287
Wind_Speed
13 13 13 12 11 9 8 7 7 6 4 5 10 9 11 13 11 6 12 15 15 21 11 11 3 2 1 2 1 2 5 8 9 4 5 9 8 9 11 10 9 18 18 24 29
14 14 13 12 11 10 9 9 9 8 6 6 9 12 10 10 8 17 14 20 16 12 9 6 2 1 3 3 2 5 4 4 9 10 6 7 8 10 9 10 12 20 24 30 29
17 16 16 14 12 11 10 9 6 6 8 7 8 12 10 1 2 5 25 15 9 9 7 7 5 3 3 4 4 3 4 6 9 11 7 7 7 9 10 2 15 18 21 25 26
17 17 16 14 15 13 9 6 4 6 8 7 6 9 8 1 3 12 27 15 10 9 6 4 4 3 6 7 4 6 4 5 7 9 7 6 6 4 15 11 14 15 18 21 20
16 16 14 14 15 13 9 9 3 4 8 7 8 13 5 5 6 19 22 12 10 7 5 3 5 3 7 3 4 5 5 2 7 10 12 8 5 3 16 13 12 13 15 16 19
17 16 13 13 11 14 13 17 9 9 10 11 11 8 3 3 9 19 16 10 10 5 6 3 1 2 4 2 3 3 2 5 5 10 9 11 9 4 16 12 12 13 15 16 20
17 14 9 11 15 11 10 12 13 14 10 12 13 8 14 5 11 15 14 13 9 4 6 10 3 1 1 6 1 3 6 5 10 11 4 11 6 10 11 10 11 12 13 15 21
17 14 7 6 7 8 8 11 12 11 11 7 8 5 6 4 8 16 13 11 12 9 9 9 9 7 5 1 3 3 3 7 10 11 6 8 7 10 10 11 13 13 13 13 16
18 15 8 4 4 7 11 5 10 7 3 4 4 1 5 4 9 16 11 7 5 9 8 6 6 4 4 5 5 2 0 2 3 8 9 7 6 6 8 9 11 12 13 13 14
17 16 8 2 1 3 6 9 6 3 7 5 7 2 6 6 8 13 8 9 3 3 0 5 3 7 12 2 1 2 2 2 3 8 11 5 4 3 6 8 10 12 13 15 16
16 15 8 4 3 2 4 2 4 3 16 7 6 5 3 9 6 12 10 6 1 5 3 7 10 9 10 9 7 4 1 3 2 3 7 1 4 6 1 5 9 12 13 14 15
15 15 7 4 2 3 4 1 2 7 10 9 6 7 6 5 2 20 14 2 4 4 3 6 8 5 4 5 2 2 2 4 3 2 5 3 8 9 8 1 4 9 12 14 16
15 14 7 4 2 2 5 4 9 4 2 4 4 4 4 8 7 11 11 4 10 14 7 6 5 1 2 8 1 5 7 5 3 8 5 9 8 13 12 9 3 6 8 11 15
14 13 9 2 3 3 3 9 3 3 2 2 1 4 3 1 4 7 7 3 3 5 6 8 3 1 2 5 6 2 7 6 5 5 2 4 1 11 11 8 4 5 9 12 13
13 11 7 2 5 1 4 5 1 2 3 4 3 2 4 3 2 9 7 5 5 4 3 4 3 4 2 2 5 4 8 3 3 4 4 5 4 8 7 8 5 4 7 9 10
10 9 1 3 3 3 10 3 2 2 6 3 0 0 3 4 3 2 2 6 2 5 11 5 1 2 4 6 3 8 2 3 2 2 3 6 3 8 8 5 5 2 6 8 10
6 4 3 2 2 11 6 3 2 4 2 2 2 2 4 3 3 3 3 3 0 4 4 3 2 1 4 3 3 5 2 1 2 2 2 5 5 7 6 7 5 4 6 7 8
1 1 8 6 8 9 2 1 4 2 3 1 3 5 2 1 2 1 3 3 4 1 2 4 4 2 3 4 3 4 3 3 4 3 4 5 6 3 5 8 7 6 6 7 7
3 1 3 4 8 3 2 2 2 1 5 9 5 4 2 2 1 2 0 2 2 2 2 3 2 3 3 2 3 2 1 2 1 2 2 4 5 7 9 10 10 9 7 6 7
1 3 5 3 5 1 2 2 2 1 3 3 4 2 6 5 5 4 5 4 4 1 1 2 2 2 4 1 3 3 4 2 3 3 5 5 5 10 11 13 12 12 9 7 8
1 1 6 5 4 2 2 2 2 3 1 2 3 3 2 4 4 4 4 3 2 5 2 2 1 4 0 7 5 4 3 2 2 2 3 5 4 3 3 7 9 9 6 6 10
1 1 7 4 2 1 1 4 2 7 2 1 1 2 4 6 4 5 6 0 8 7 3 3 0 3 2 4 2 3 4 6 3 4 4 3 9 1 1 3 3 8 7 10 12
1 2 4 3 3 3 2 2 2 4 4 4 3 1 2 5 2 4 5 4 10 7 5 6 2 2 3 2 2 5 9 9 2 2 10 4 6 4 5 4 6 9 12 14 13
1 1 1 2 1 3 5 4 4 2 3 2 3 2 4 3 2 5 6 5 9 6 4 4 2 6 6 3 2 4 9 15 10 5 7 15 21 16 16 12 11 13 15 15 13
3 1 2 2 1 4 2 8 6 6 2 6 3 7 5 4 3 4 5 5 7 8 7 2 4 3 11 12 12 10 8 15 21 21 10 17 18 19 15 17 20 18 16 13 13
1 2 1 2 0 2 2 7 9 5 8 5 5 9 8 4 3 7 9 7 5 9 7 4 1 1 5 10 10 15 16 21 24 23 24 30 31 29 23 17 10 11 12 11 12
2 1 2 2 3 2 2 4 8 8 6 1 7 5 9 9 4 2 5 1 5 10 13 7 4 1 4 1 10 11 21 20 15 11 18 20 23 18 16 15 12 12 11 11 13
Wind_Direction
7 0 355 348 337 327 311 291 279 271 258 212 175 145 97 71 80 60 46 340 326 325 342 314 326 321 198 145 240 297 245 261 291 322 99 41 356 13 334 291 352 1 9 353 348
4 1 357 348 336 329 320 300 275 257 238 219 191 180 155 105 78 67 358 343 336 335 337 353 26 248 156 152 167 220 246 292 39 37 17 347 353 354 327 346 6 343 345 348 348
2 1 360 355 353 346 331 314 294 249 217 205 201 196 192 94 213 18 346 347 342 339 303 299 295 276 187 174 168 184 255 42 58 30 2 15 4 331 344 19 2 339 343 345 349
3 2 0 9 6 349 338 332 280 230 208 191 192 182 177 256 251 345 341 347 349 345 310 281 237 218 209 192 179 205 85 36 33 29 28 26 327 22 60 4 337 3 348 352 -0
5 4 10 27 21 18 38 30 10 172 171 167 139 139 127 74 17 336 339 353 354 356 14 307 240 241 212 170 183 239 98 52 54 22 31 340 347 105 28 1 10 0 4 5 6
7 8 36 32 40 46 51 35 60 115 136 136 140 130 229 135 344 345 353 9 7 27 58 19 13 306 111 140 256 95 127 69 37 9 42 360 36 156 12 10 28 17 18 15 14
9 13 48 43 42 46 47 47 67 99 113 118 111 99 64 81 4 5 13 24 34 33 86 39 343 273 201 142 68 154 188 181 40 14 26 335 91 33 6 16 34 40 26 18 16
12 12 27 36 58 64 60 64 89 107 122 66 66 66 72 358 9 17 18 46 44 57 62 30 40 83 28 104 139 174 208 208 67 16 356 332 104 41 22 25 34 34 33 25 18
8 8 12 16 49 66 70 78 80 95 88 2 31 46 81 357 13 1 11 11 35 59 55 52 74 80 170 205 174 154 257 18 101 47 353 346 105 53 24 29 26 26 25 22 16
2 3 353 331 193 68 67 70 65 78 12 34 46 114 48 4 347 346 358 3 6 304 146 27 53 82 37 297 141 29 360 1 330 13 359 48 116 45 33 24 20 14 12 13 10
357 357 348 264 242 210 2 275 206 88 44 58 27 74 54 341 10 12 349 329 17 45 79 20 75 61 38 35 46 57 331 336 73 82 329 140 254 220 307 5 8 3 360 359 359
355 354 351 323 238 246 346 335 38 121 97 51 58 76 46 336 346 16 7 58 32 95 117 94 72 44 34 31 78 30 301 33 196 177 302 222 269 211 212 244 354 352 352 351 349
354 355 2 1 169 25 53 88 123 97 84 51 46 34 352 2 36 2 5 17 56 68 72 73 85 21 8 44 84 52 23 347 306 310 236 285 232 195 208 220 252 350 353 354 352
349 356 4 54 102 122 62 141 120 19 118 69 62 47 350 358 69 20 15 5 55 96 65 74 89 106 119 74 340 181 3 308 279 298 316 344 338 195 198 213 216 340 359 354 352
342 358 34 135 117 165 149 152 72 293 256 66 73 359 30 58 43 32 8 56 77 93 248 91 74 32 57 20 340 36 328 279 262 281 305 171 257 115 168 229 216 318 343 354 355
342 6 115 40 71 158 152 146 287 55 245 121 341 306 155 47 57 358 76 63 22 80 68 88 80 346 351 302 254 300 311 195 236 296 257 117 349 186 186 196 194 263 329 344 351
338 359 57 101 107 151 145 237 77 221 35 155 137 129 105 60 82 24 69 61 33 150 179 160 141 96 348 305 198 323 291 207 218 229 294 135 286 282 168 179 202 256 309 329 338
309 17 45 87 139 152 220 110 230 65 197 140 136 110 144 5 69 87 149 131 68 257 154 203 209 180 19 36 344 10 353 347 281 271 340 154 236 242 169 179 200 235 273 291 317
125 56 43 44 134 137 236 200 315 69 129 163 143 178 146 152 236 179 136 138 85 6 253 167 169 125 55 43 322 47 178 49 300 101 287 233 235 229 188 204 218 236 251 284 296
193 141 27 103 124 260 79 262 201 36 122 176 222 255 178 169 189 207 177 145 143 61 357 114 207 220 116 207 106 304 125 200 166 272 272 221 268 258 202 216 217 221 234 267 291
205 204 356 127 62 51 225 139 170 198 269 233 203 139 173 167 198 181 163 152 186 141 97 143 267 120 300 199 182 158 195 202 318 253 275 297 258 41 238 210 214 228 237 277 304
158 202 342 133 71 3 152 141 205 158 179 162 128 110 179 157 161 213 208 244 165 159 166 157 277 225 206 115 320 319 237 203 238 180 246 300 272 55 235 245 235 264 257 281 306
141 114 15 318 200 159 126 133 183 171 195 176 171 191 177 171 193 192 180 133 166 170 168 174 193 243 198 197 209 229 213 216 224 287 229 230 257 136 152 214 256 268 273 279 307
221 156 88 62 52 149 157 168 169 180 180 156 144 113 154 159 171 180 184 164 181 191 137 168 240 254 269 42 76 206 208 207 196 215 246 227 270 269 281 280 282 293 303 303 298
8 91 5 173 194 143 169 159 157 185 240 190 188 222 177 140 160 209 173 152 182 191 181 201 248 223 274 273 256 244 229 209 214 221 243 270 275 280 289 306 301 297 293 295 295
358 174 159 93 357 188 190 203 184 167 162 217 228 190 184 176 201 186 167 183 187 178 196 158 243 67 266 267 269 262 250 237 236 241 253 261 274 269 278 282 297 295 291 294 297
63 99 286 132 170 219 209 190 199 155 202 296 201 163 209 231 188 60 169 151 157 172 186 170 208 186 270 99 310 274 236 223 215 219 228 246 252 284 284 287 295 290 297 293 300